Regional Weather Roundup
Issued by NWS Mt. Holly, NJ

Home | Current Version | Previous Version | Text Only | Print | Product List | Glossary On
Versions: 1 2 3 4 5 6 7 8 9 10 11 12 13 14 15 16 17 18 19 20 21 22 23 24 25 26 27 28 29 30 31 32 33 34 35 36 37 38 39 40 41 42 43 44 45 46 47 48 49 50
000
ASUS41 KPHI 021211
RWRPHI

REGIONAL WEATHER ROUNDUP
NATIONAL WEATHER SERVICE MOUNT HOLLY NJ
700 AM EST MON MAR 02 2015

NOTE:  "FAIR" INDICATES FEW OR NO CLOUDS BELOW 12,000 FEET WITH NO
SIGNIFICANT WEATHER AND/OR OBSTRUCTIONS TO VISIBILITY.

 * = STATION DOES NOT REPORT PRECIPITATION (E.G. RAIN, SNOW, ETC.)
        OR FOG.

NJZ015>026-021300-
SOUTHERN NEW JERSEY

CITY           SKY/WX    TMP DP  RH WIND       PRES   REMARKS
POMONA         CLOUDY    33  31  92 W8        30.09R FOG     WCI  26
6HR MIN TEMP:  32; 6HR MAX TEMP:  33; 6HR PCP:  0.01;

RIO GRANDE*    CLOUDY    32  28  86 CALM      30.11R
MILLVILLE      CLOUDY    32  31  96 W8        30.10R FOG     WCI  25
WRIGHTSTOWN    CLOUDY    32  31  99 CALM      30.05R FOG
TRENTON        CLOUDY    31  27  85 NW6       30.06R FOG     WCI  25
6HR MIN TEMP:  28; 6HR MAX TEMP:  31;


$$
NJZ001>014-021300-
NORTHERN NEW JERSEY

CITY           SKY/WX    TMP DP  RH WIND       PRES   REMARKS
SUSSEX         MIX PCPN  25  21  85 S3        30.06R
ANDOVER*         N/A     25  23  92 CALM      30.07R
MORRISTOWN     CLOUDY    27  25  93 CALM      30.04R
NEWARK         CLOUDY    31  28  89 W6        30.05R WCI  25
TETERBORO      CLOUDY    29  24  82 NW6       30.04R WCI  23
CALDWELL       CLOUDY    27  23  85 CALM      30.06R FOG
SOMERVILLE     CLOUDY    32  26  78 VRB6      30.05R HAZE    WCI  26
ALLAIRE*       CLOUDY    32  27  80 CALM      30.04R
TOMS RIVER*    CLOUDY    34  30  86 CALM      30.05S

$$
PAZ043-044-047-054-055-060>062-066>071-021300-
EASTERN PENNSYLVANIA

CITY           SKY/WX    TMP DP  RH WIND       PRES   REMARKS
PHILADELPHIA   CLOUDY    32  30  92 W9        30.11R FOG     WCI  24
6HR MIN TEMP:  32; 6HR MAX TEMP:  32;

NORTH PHILA    CLOUDY    35  28  75 W10       30.10R HAZE    WCI  27
BLUE BELL      CLOUDY    32  32 100 CALM      30.08R
DOYLESTOWN     CLOUDY    32  30  92 W5        30.06R WCI  27
QUAKERTOWN*    CLOUDY    32  28  86 CALM      30.08R
POTTSTOWN      CLOUDY    29  29 100 W6        30.11R FOG     WCI  23
LANCASTER      CLOUDY    29  27  92 W6        30.11R FOG     WCI  23
COATESVILLE    CLOUDY    32  32 100 NW10      30.09R FOG     WCI  24
READING        CLOUDY    27  24  89 CALM      30.11R FOG
6HR MIN TEMP:  25; 6HR MAX TEMP:  27;

ALLENTOWN      CLOUDY    28  24  85 W3        30.09R FOG
6HR MIN TEMP:  25; 6HR MAX TEMP:  28;

MOUNT POCONO   MIX PCPN  24  21  88 NW13G21   29.97R FOG     WCI  12
6HR MIN TEMP:  24; 6HR MAX TEMP:  28; 6HR PCP: TRACE;

HAZLETON       MIX PCPN  28  27  93 W7        30.05R WCI  21
WILKES BARRE   LGT SNOW  26  23  88 SW3       30.06R

$$
DEZALL-MDZ008-012-015-019-020-021300-
DELAWARE AND EASTERN MARYLAND

CITY           SKY/WX    TMP DP  RH WIND       PRES   REMARKS
WILMINGTON     FOG       31  30  96 W5        30.11S VSB 1   WCI  26
6HR MIN TEMP:  31; 6HR MAX TEMP:  31;

DOVER          CLOUDY    33  33 100 CALM      30.11R FOG
GEORGETOWN     CLOUDY    32  31  96 W3        30.12R FOG
6HR MIN TEMP:  32; 6HR MAX TEMP:  32;

EASTON         FOG       34  34 100 CALM      30.16R VSB 3/4
PATUXENT       FOG       32  31  96 NW6       30.14R VSB 1/4 WCI  26
OCEAN CITY     CLOUDY    32  32 100 W5        30.12R FOG     WCI  27
WALLOPS ISLAND MIX PCPN  32  32 100 NW6       30.12R FOG     WCI  26
SALISBURY      CLOUDY    35  32  88 CALM      30.12R FOG

$$
PAZ001-021-NYZ056-072-MDZ011-DCZ001-021300-
OTHER NEARBY LOCATIONS

CITY           SKY/WX    TMP DP  RH WIND       PRES   REMARKS
HARRISBURG     CLOUDY    28  25  88 CALM      30.12R FOG
STATE COLLEGE  LGT SNOW  27  19  74 NW29G40   30.14R WCI  11
WILLIAMSPORT   CLOUDY    27  22  81 W12       30.14R WCI  17
BINGHAMTON     LGT SNOW  19  15  84 NW8       30.04R FOG     WCI   9
NEW YORK CITY  CLOUDY    32  25  75 W6        30.05R WCI  26
BALTIMORE      MOCLDY    32  31  96 W7        30.12R FOG     WCI  26
WASHINGTON DC  CLOUDY    35  31  85 CALM      30.14R FOG

$$


USA.gov is the U.S. government's official web portal to all federal, state and local government web resources and services.